Location: Le Domaine
(47.0333°N, 76.5361°W)
Time: 15:43:53
(UTC-05:00)

Explorer 11/Cluster Stage 4 - Pass Details

Date: 18 November 2019
Orbit: 467 x 1259 km, 28.8° (Epoch: 07 December)

Event Time Altitude Azimuth Distance (km) Brightness Sun altitude
Rises 23:52:24 0° 245° (WSW) 3,852 - -62.1°
Reaches altitude 10° 23:56:17 10° 225° (SW) 3,026 - -62.1°
Maximum altitude 00:00:33 16° 191° (S) 2,702 - -62.1°
Drops below altitude 10° 00:05:02 10° 157° (SSE) 3,203 - -62.0°
Sets 00:09:21 0° 138° (SE) 4,195 - -61.9°
